Miscellaneous Local Product
Issued by NWS North Platte, NE

Home | Current Version | Previous Version | Text Only | Print | Product List | Glossary On
Versions: 1 2 3 4 5 6 7 8 9 10 11 12 13 14 15 16 17 18 19 20 21 22 23 24 25 26 27 28 29 30 31 32 33 34 35 36 37 38 39 40 41 42 43 44 45 46 47 48 49 50
363
AXUS43 KLBF 240510
MISLBF


WESTERN AND NORTH CENTRAL NEBRASKA HOURLY WEATHER ROUNDUP
NATIONAL WEATHER SERVICE NORTH PLATTE NE
1200 AM CDT TUE MAY 24 2016

NOTE: "FAIR" INDICATES FEW OR NO CLOUDS BELOW 12,000 FEET WITH NO
SIGNIFICANT WEATHER AND/OR OBSTRUCTIONS TO VISIBILITY.

NOTE: STATIONS NOT REPORTING VARIABLES SUCH AS SKY/WEATHER OR
PRESSURE ARE PROVIDED BY RAWS AND APRS NETWORKS AND ARE NOT UNDER
NATIONAL WEATHER SERVICE QUALITY CONTROL.

...OBSERVATIONS IN AND NEAR THE EASTERN PANHANDLE OF NEBRASKA...

CITY           SKY/WX    TMP DP  RH WIND       PRES   REMARKS
PINE RIDGE     CLEAR     52  38  58 SW7       29.86R
CHADRON        CLOUDY    55  41  59 W3        29.85S
ALLIANCE       CLEAR     40  39  97 W6        29.88R
SIDNEY         CLOUDY    41  38  89 SW5       29.92S
CRESCENT LAKE    N/A     49  40  72 CALM        N/A
BIG SPRINGS      N/A     57  44  62 E3          N/A
$$

...OBSERVATIONS IN NORTHERN NEBRASKA AND FAR SOUTHERN SOUTH DAKOTA...

CITY           SKY/WX    TMP DP  RH WIND       PRES   REMARKS
WINNER         FAIR      64  45  49 SW6       29.77S
VALENTINE      PTCLDY    61  41  47 W8        29.81R
THEDFORD       CLEAR     56  45  68 W6        29.85S
AINSWORTH      PTCLDY    61  43  51 W8        29.82F
O`NEILL        CLEAR     62  58  89 SW6       29.80R
ORD            CLEAR     59  57  93 VRB3      29.80R
BROKEN BOW     CLEAR     57  45  64 E7        29.85R
BUTTE            N/A     64  51  61 S5          N/A
CHAMBERS         N/A     63  60  91 S3          N/A
EWING            N/A     62  60  92 CALM        N/A
$$

...OBSERVATIONS IN SOUTHWEST NEBRASKA AND FAR NORTHEAST COLORADO...

CITY           SKY/WX    TMP DP  RH WIND       PRES   REMARKS
WRAY           FAIR      50  45  81 N12       29.89S
HOLYOKE        FAIR      54  50  87 CALM      29.89F
IMPERIAL       CLEAR     52  45  77 N7        29.88F
OGALLALA       MOCLDY    55  41  60 CALM      29.88S
NORTH PLATTE   CLEAR     51  45  79 CALM      29.85S
MCCOOK         CLEAR     58  49  72 NW6       29.83R
LEXINGTON      CLEAR     58  53  84 CALM      29.82F
PAXTON           N/A     60  47  63 N3          N/A
STAPLETON        N/A     53  45  75 CALM        N/A
GOTHENBURG       N/A     63  43  48 CALM        N/A
CALLAWAY         N/A     60  45  57 NW15        N/A
$$

...OBSERVATIONS IN CENTRAL LINCOLN COUNTY AREA...

CITY           SKY/WX    TMP DP  RH WIND       PRES   REMARKS
N.P. AIRPORT   CLEAR     51  45  79 CALM      29.85S
N.P. DOWNTOWN    N/A     58  46  65 CALM        N/A
N.P. SOUTHEAST   N/A     59  46  61 CALM        N/A
N.P. HILLCREST   N/A     56  46  68 NW3         N/A
$$

...SOME OBSERVATIONS FROM AROUND THE REGION...

CITY           SKY/WX    TMP DP  RH WIND       PRES   REMARKS
DENVER         CLOUDY    51  42  71 SE3       29.95S
LARAMIE        CLOUDY    42  31  64 NE5       30.01R
CHEYENNE       CLEAR     45  38  76 W9        29.97R
SCOTTSBLUFF    CLEAR     45  42  89 NE5       29.90R
RAPID CITY     CLOUDY    59  32  36 W8        29.81R
BISMARCK       CLOUDY    60  46  59 SE5       29.77S
PIERRE         PTCLDY    60  47  61 S7        29.72R
SIOUX FALLS    CLOUDY    64  62  93 S6        29.78R
OMAHA          TSTM      68  63  84 S13       29.83S
GRAND ISLAND   CLEAR     60  58  92 S6        29.82R
KANSAS CITY    PTCLDY    62  59  90 S8        29.91R
WICHITA        CLOUDY    69  65  86 S14       29.85S
OKLAHOMA CITY  CLOUDY    70  69  97 S9        29.90R
DALLAS         CLOUDY    78  70  76 SE9       29.90R
AMARILLO       CLEAR     67  60  78 SE20G33   29.88R
DODGE CITY     CLEAR     67  55  65 S20G26    29.80R
HAYS           CLOUDY    72  63  73 SE10      29.80F
GOODLAND       CLEAR     56  50  80 E7        29.85R
$$




USA.gov is the U.S. government's official web portal to all federal, state and local government web resources and services.